Home > Weather > Kingston > Past weeks

Flag for Canada Weather for the Past 2 Weeks in Kingston, Ontario, Canada

Now
34 °F

Partly cloudy.


Feels Like: 25 °F
Forecast: 28 / 36 °F
Wind: 13 mph from Southwest

Location: Kingston

Current Time: Feb 7, 2016 at 1:22:12 AM

Latest Report: Feb 6, 2016 at 11:00 PM


Visibility: 15 mi

Pressure: 30.13 "Hg

Humidity: 75%

Dew point: 27 °F

Location of KingstonLocation

Historic Weather in Kingston — Graph

°F

Kingston Temperature Yesterday

Maximum temperature yesterday: 36 °F (at 2:00 PM)
Minimum temperature yesterday: 30 °F (at 6:00 AM)
Average temperature yesterday: 34 °F

High & Low Weather Summary for the Past Weeks

 TemperatureHumidityPressure
High46 °F (Feb 3, 7:00 PM)93% (Jan 24, 8:00 PM)30.40 "Hg (Jan 24, 8:00 PM)
Low1 °F (Jan 24, 6:00 AM)40% (Feb 5, 3:00 PM)29.46 "Hg (Jan 29, 6:00 AM)
Average31 °F74%29.95 "Hg
* Reported Jan 22 11:00 PM — Feb 6 11:00 PM, Kingston, Weather by CustomWeather, © 2016

Note: Actual official high and low records may vary slightly from our data, if they occured in-between our weather recording intervals... More about our weather records

Advertising

Kingston Weather History for the Previous 24 Hours

 ConditionsComfort  
Time TempWeatherWind HumidityBarometerVisibility
11:00 PM
Sat, Feb 6
34 °FPartly cloudy.13 mph75%30.13 "Hg15 mi
10:00 PM34 °FPartly cloudy.13 mph70%30.14 "Hg15 mi
9:00 PM34 °FPassing clouds.16 mph70%30.14 "Hg15 mi
8:00 PM34 °FPassing clouds.15 mph70%30.14 "Hg15 mi
7:00 PM34 °FPassing clouds.15 mph70%30.14 "Hg15 mi
6:00 PM34 °FPassing clouds.15 mph70%30.14 "Hg15 mi
5:00 PM34 °FPartly sunny.17 mph70%30.13 "Hg15 mi
4:00 PM36 °FBroken clouds.16 mph70%30.13 "Hg15 mi
3:00 PM36 °FPartly sunny.16 mph65%30.14 "Hg15 mi
2:00 PM36 °FBroken clouds.14 mph70%30.14 "Hg15 mi
1:00 PM34 °FPartly sunny.13 mph81%30.16 "Hg15 mi
12:00 PM32 °FLight snow. Mostly cloudy.10 mph93%30.16 "Hg4 mi
11:00 AM32 °FLight snow. Low clouds.9 mph93%30.19 "Hg3 mi
10:00 AM34 °FOvercast.8 mph81%30.20 "Hg12 mi
9:00 AM34 °FLight snow. More clouds than sun.14 mph75%30.20 "Hg6 mi
8:00 AM32 °FLight snow. Mostly cloudy.12 mph75%30.21 "Hg10 mi
7:00 AM32 °FLight snow. Mostly cloudy.8 mph80%30.22 "Hg10 mi
6:00 AM30 °FLight snow. Overcast.7 mph93%30.22 "Hg8 mi
Weather by CustomWeather, © 2016

See weather overviewHow to use our weather pages